SBBESBFZ

Guest
Details From SBBE - Val De Caes Intl
To SBFZ - Pinto Martins
Flight Number -
Tags decoded
Created
Modified
Stats Distance 614 nm / 1,136 km
Max Altitude 0 ft / 0 m
Waypoints 2
Social Downloads 0
Likes 0
Share VATSIM

Download

Looking for another format? Having issues loading an existing format? Contact us
Advertisement - Login to hide

Notes

Requested: SBBE BE393 SBFZ Unmatched points: BE393

Route

SBBE SBFZ

ID Type Via Altitude Latitude Longitude Leg Dist Tot Dist Heading (true) Name
O SBBE APT - 0 ft / 0 m -1.38078˚ -48.47619˚ - 0 nm - Val De Caes Intl
O SBFZ APT - 0 ft / 0 m -3.77628˚ -38.53256˚ 613 nm 613 nm 104° / 103° Pinto Martins

Altitude Profile

Advertisement - Login to hide

Weather


0- 5 10 15 20 25 30 35+ Temperature / ° C

Clouds and Precipitation
Forecast for 2018-05-23 06:00 UTC. Updated 2 hours ago

Ground ~20,000 ft ~40,000 ft Winds

SBBE

Details ICAO SBBE (BEL)
Name Val De Caes Intl
Region Brazil
Timezone America/Belem (UTC-3.0)
Stats Elevation 54 ft / 16 m (AMSL)
Location -1.380776° -48.476189°
Runways 2
Magnetic Variation 20.154° W

METAR

SBBE 230700Z 05002KT 9999 SCT025 BKN100 23/22 Q1012

Decode

TAF

TAF TAF SBBE 230400Z 2306/2406 06003KT CAVOK TN24/2307Z TX30/2316Z BECMG 2308/2310 09005KT SCT017 BECMG 2315/2317 36010KT BKN025 FEW030TCU PROB30 TEMPO 2318/2320 3000 TSRA BKN020 FEW030CB BECMG 2322/2324 06005KT FEW025 RMK PEH

Decode

Departure Runways

ID Width Length Bearing (true) Bearing (mag) Surface Threshold Offset Overrun Length
02 148 ft / 45 m 6,023 ft / 1,836 m 4.48° 24.63° Asphalt 0 ft / 0 m 194 ft / 59 m
06 148 ft / 45 m 9,215 ft / 2,809 m 45.30° 65.45° Asphalt 0 ft / 0 m 0 ft / 0 m
20 148 ft / 45 m 6,023 ft / 1,836 m 184.48° 204.63° Asphalt 0 ft / 0 m 194 ft / 59 m
24 148 ft / 45 m 9,215 ft / 2,809 m 225.30° 245.45° Asphalt 0 ft / 0 m 197 ft / 60 m

SBFZ

Details ICAO SBFZ (FOR)
Name Pinto Martins
Region Brazil
Timezone America/Fortaleza (UTC-3.0)
Stats Elevation 82 ft / 25 m (AMSL)
Location -3.776283° -38.532556°
Runways 1
Magnetic Variation 21.110° W

METAR

SBFZ 230700Z 16005KT 9999 FEW025 SCT100 25/23 Q1012

Decode

TAF

TAF SBFZ 230200Z 2306/2406 15006KT 9000 SCT018 TN25/2308Z TX29/2315Z BECMG 2311/2312 08011KT RMK PEA

Decode

Destination Runways

ID Width Length Bearing (true) Bearing (mag) Surface Threshold Offset Overrun Length
13 148 ft / 45 m 8,360 ft / 2,548 m 104.88° 125.99° Asphalt 0 ft / 0 m 195 ft / 59 m
31 148 ft / 45 m 8,360 ft / 2,548 m 284.88° 305.99° Asphalt 0 ft / 0 m 125 ft / 38 m

Approach Navaids

Runway Type Ident Frequency Range Bearing (true) Bearing (mag) Slope Elevation
13 Localiser IFZ 109.30 MHz 18 nm / 33 km 105.09° 126.20° - 82 ft / 25 m (AMSL)
13 Glidescope IFZ 109.30 MHz 10 nm / 19 km 104.88° 125.99° 3.00° 82 ft / 25 m (AMSL)
13 DME IFZ 109.30 MHz 18 nm / 33 km - - - 82 ft / 25 m (AMSL)

Popular Alternatives